Flag for Germany Weather past 2 weeks in Winsen (Luhe), Lower Saxony, Germany

Now
63 °F

Partly cloudy.


Feels Like: 63 °F
Forecast: 55 / 67 °F
Wind: 2 mph from North

Location: Hamburg-Finkenwerder

Current Time: Oct 1, 2014 at 10:29:48 PM

Latest Report: Oct 1, 2014 at 8:20 PM


Visibility: N/A

Pressure: 30.30 "Hg

Humidity: 88%

Dew point: 59 °F

Location of Winsen (Luhe)Location

Historic Weather in Winsen (Luhe) — Graph

°F

Winsen (Luhe) temperature yesterday

Maximum temperature yesterday: 68 °F (at 3:50 PM)
Minimum temperature yesterday: 59 °F (at 7:50 AM)
Average temperature yesterday: 63 °F

Past Weeks' High & Low Weather Summary

 TemperatureHumidityPressure
High75 °F (Sep 17, 4:50 PM)100% (Sep 25, 5:50 AM)30.36 "Hg (Sep 25, 5:50 AM)
Low41 °F (Sep 23, 7:20 AM)48% (Sep 22, 12:20 PM)29.74 "Hg (Sep 24, 4:50 PM)
Average62 °F77%30.03 "Hg
* Reported Sep 16 8:20 PM — Oct 1 8:20 PM, Winsen (Luhe), Weather by CustomWeather, © 2014

Note: Actual official high and low records may vary slightly from our data, if they occured in-between our weather recording intervals... More about our weather records

Advertising

Winsen (Luhe) weather history for previous 24 hours

 ConditionsComfort  
Time TempWeatherWind HumidityBarometerVisibility
8:20 PM
Oct 1
63 °FPartly cloudy.2 mph88%30.30 "HgN/A
7:50 PM64 °FBroken clouds.1 mph88%30.30 "HgN/A
7:20 PM64 °FScattered clouds.1 mph83%30.30 "HgN/A
6:50 PM64 °FBroken clouds.2 mph83%30.27 "HgN/A
6:20 PM66 °FBroken clouds.3 mph78%30.27 "Hg5 mi
5:50 PM68 °FBroken clouds.5 mph73%30.27 "HgN/A
5:20 PM68 °FBroken clouds.6 mph69%30.27 "HgN/A
4:50 PM68 °FBroken clouds.8 mph69%30.27 "HgN/A
4:20 PM68 °FBroken clouds.7 mph73%30.27 "HgN/A
3:50 PM68 °FPartly sunny.8 mph69%30.27 "HgN/A
3:20 PM68 °FPartly sunny.13 mph69%30.27 "HgN/A
2:50 PM68 °FBroken clouds.8 mph69%30.27 "HgN/A
2:20 PM66 °FBroken clouds.8 mph78%30.27 "HgN/A
1:50 PM66 °FBroken clouds.7 mph78%30.27 "HgN/A
1:20 PM66 °FPartly sunny.9 mph78%30.27 "HgN/A
12:50 PM66 °FPartly sunny.7 mph78%30.27 "HgN/A
12:20 PM64 °FScattered clouds.8 mph83%30.30 "HgN/A
11:50 AM64 °FScattered clouds.6 mph83%30.27 "HgN/A
11:20 AM63 °FScattered clouds.6 mph94%30.30 "Hg5 mi
10:50 AM61 °FPartly sunny.5 mph100%30.30 "Hg4 mi
10:20 AM59 °FFog.5 mph100%30.30 "Hg2 mi
9:50 AM57 °FFog.3 mph100%30.27 "Hg2 mi
9:20 AM57 °FFog.No wind100%30.27 "Hg2 mi
8:50 AM55 °FFog.1 mph100%30.27 "Hg2 mi
8:20 AM54 °FFog.1 mph100%30.27 "Hg2 mi
7:50 AM54 °FFog.3 mph100%30.27 "Hg2 mi
7:20 AM54 °FFog.3 mph100%30.27 "Hg1 mi
6:50 AM54 °FFog.3 mph100%30.27 "Hg1 mi
6:20 AM54 °FFog.1 mph100%30.27 "Hg1 mi
5:50 AM54 °FFog.2 mph100%30.27 "Hg0 mi
Weather by CustomWeather, © 2014

See weather overviewHow to use our weather pages